RYR8WH LPPR-LEPA

Flight info

Callsign RYR8WH
Flight time N/A
Altitude 31000
Route PESUL9E PESUL DCT RIVRO DCT BARDI/N0412F320 M191 DIPOL/N0435F380 M871 NVS/N0433F370 DCT NANDO DCT MINGU DCT ABOSI DCT MABUX DCT RETBA DCT MOPIR DCT LASPO/N0365F260 M871 GODOX GODOX4P
Aircraft B738/M-SDE2E3FGHIRWXY/LB1

Departure

Time N/A
Airport Francisco de Sá Carneiro Airport (LPPR)

Arrival

Time 2026-05-05 18:53
Airport Palma de Mallorca Airport (LEPA)
Time Latitude Longitude Altitude Speed Heading
2026-05-05 18:14 39.82451 -1.47476 37930 ft 489 kts 111°
2026-05-05 18:14 39.81441 -1.43249 37942 ft 489 kts 111°
2026-05-05 18:15 39.79402 -1.34805 37948 ft 488 kts 115°
2026-05-05 18:15 39.77870 -1.30928 37945 ft 475 kts 133°
2026-05-05 18:15 39.75693 -1.27806 37965 ft 462 kts 147°
2026-05-05 18:15 39.73094 -1.25475 37961 ft 447 kts 162°
2026-05-05 18:16 39.70284 -1.23824 37980 ft 442 kts 165°
2026-05-05 18:16 39.64612 -1.20683 37955 ft 445 kts 164°
2026-05-05 18:17 39.58947 -1.17374 37948 ft 449 kts 161°
2026-05-05 18:17 39.56255 -1.15203 37939 ft 462 kts 148°
2026-05-05 18:17 39.53898 -1.12317 37944 ft 473 kts 136°
2026-05-05 18:17 39.51987 -1.08791 37934 ft 483 kts 125°
2026-05-05 18:18 39.50364 -1.04982 37932 ft 485 kts 123°
2026-05-05 18:18 39.47174 -0.97265 37903 ft 486 kts 124°
2026-05-05 18:19 39.43853 -0.89625 37882 ft 486 kts 125°
2026-05-05 18:19 39.40538 -0.82071 37888 ft 486 kts 125°
2026-05-05 18:20 39.37193 -0.74482 37885 ft 485 kts 125°
2026-05-05 18:20 39.33855 -0.66933 37864 ft 483 kts 125°
2026-05-05 18:21 39.30554 -0.59395 37864 ft 483 kts 121°
2026-05-05 18:21 39.29308 -0.55339 37588 ft 491 kts 110°
2026-05-05 18:21 39.28533 -0.51038 37328 ft 491 kts 102°
2026-05-05 18:21 39.28168 -0.46660 37039 ft 491 kts 94°
2026-05-05 18:22 39.28278 -0.42246 36787 ft 492 kts 88°
2026-05-05 18:22 39.28531 -0.37836 36534 ft 493 kts 87°
2026-05-05 18:22 39.28824 -0.33410 36274 ft 494 kts 87°
2026-05-05 18:22 39.29120 -0.28992 36012 ft 493 kts 88°
2026-05-05 18:23 39.29401 -0.24573 35760 ft 495 kts 88°
2026-05-05 18:23 39.29662 -0.20189 35523 ft 499 kts 88°
2026-05-05 18:23 39.29915 -0.15703 35282 ft 502 kts 89°
2026-05-05 18:23 39.30159 -0.11198 35032 ft 502 kts 89°
2026-05-05 18:24 39.30398 -0.06697 34786 ft 503 kts 89°
2026-05-05 18:24 39.30634 -0.02198 34542 ft 503 kts 89°
2026-05-05 18:24 39.30869 0.02312 34307 ft 503 kts 89°
2026-05-05 18:24 39.31103 0.06830 34072 ft 504 kts 89°
2026-05-05 18:25 39.31336 0.11349 33838 ft 504 kts 89°
2026-05-05 18:25 39.31489 0.14334 33661 ft 504 kts 89°
2026-05-05 18:25 39.31798 0.20384 33300 ft 504 kts 89°
2026-05-05 18:25 39.32026 0.24897 33036 ft 505 kts 89°
2026-05-05 18:26 39.32253 0.29419 32778 ft 505 kts 89°
2026-05-05 18:26 39.32478 0.33947 32516 ft 506 kts 89°
2026-05-05 18:26 39.32702 0.38483 32263 ft 506 kts 89°
2026-05-05 18:26 39.32925 0.43023 32011 ft 507 kts 89°
2026-05-05 18:27 39.33147 0.47588 31762 ft 508 kts 89°
2026-05-05 18:27 39.33367 0.52148 31513 ft 509 kts 89°
2026-05-05 18:27 39.33585 0.56712 31080 ft 509 kts 89°
2026-05-05 18:27 39.33802 0.61300 30364 ft 512 kts 89°
2026-05-05 18:28 39.34230 0.70398 29269 ft 507 kts 89°
2026-05-05 18:28 39.34440 0.74922 28725 ft 503 kts 89°
2026-05-05 18:28 39.34647 0.79423 28207 ft 499 kts 89°
2026-05-05 18:29 39.34850 0.83878 27679 ft 496 kts 89°
2026-05-05 18:29 39.35050 0.88310 27159 ft 492 kts 89°
2026-05-05 18:29 39.35247 0.92704 26642 ft 488 kts 89°
2026-05-05 18:29 39.35440 0.97070 26136 ft 485 kts 89°
2026-05-05 18:30 39.35631 1.01405 25632 ft 482 kts 89°
2026-05-05 18:30 39.35818 1.05717 25134 ft 479 kts 89°
2026-05-05 18:30 39.36004 1.10006 24636 ft 476 kts 89°
2026-05-05 18:30 39.36186 1.14259 24146 ft 473 kts 89°
2026-05-05 18:31 39.36366 1.18509 23619 ft 472 kts 89°
2026-05-05 18:31 39.36544 1.22722 23052 ft 466 kts 89°
2026-05-05 18:31 39.36717 1.26851 22499 ft 455 kts 89°
2026-05-05 18:31 39.36885 1.30881 22023 ft 443 kts 89°
2026-05-05 18:32 39.37146 1.34736 21655 ft 432 kts 82°
2026-05-05 18:32 39.37739 1.38482 21403 ft 422 kts 78°
2026-05-05 18:32 39.38412 1.42234 21189 ft 434 kts 78°
2026-05-05 18:32 39.39116 1.46062 20945 ft 439 kts 78°
2026-05-05 18:33 39.39817 1.49901 20689 ft 437 kts 78°
2026-05-05 18:33 39.40503 1.53729 20430 ft 434 kts 78°
2026-05-05 18:33 39.41171 1.57531 20182 ft 432 kts 79°
2026-05-05 18:33 39.41824 1.61304 19937 ft 429 kts 79°
2026-05-05 18:34 39.42470 1.65069 19694 ft 427 kts 79°
2026-05-05 18:34 39.43108 1.68806 19451 ft 425 kts 79°
2026-05-05 18:34 39.43742 1.72532 19213 ft 423 kts 79°
2026-05-05 18:34 39.44372 1.76237 18977 ft 421 kts 79°
2026-05-05 18:35 39.44999 1.79939 18735 ft 419 kts 79°
2026-05-05 18:35 39.45621 1.83614 18505 ft 418 kts 80°
2026-05-05 18:35 39.46242 1.87285 18282 ft 416 kts 80°
2026-05-05 18:35 39.46858 1.90939 18016 ft 415 kts 80°
2026-05-05 18:36 39.47472 1.94589 17748 ft 413 kts 80°
2026-05-05 18:36 39.48081 1.98211 17483 ft 412 kts 80°
2026-05-05 18:36 39.48680 2.01783 17226 ft 410 kts 80°
2026-05-05 18:36 39.49282 2.05379 16956 ft 408 kts 80°
2026-05-05 18:37 39.49880 2.08960 16700 ft 406 kts 80°
2026-05-05 18:37 39.50474 2.12523 16442 ft 403 kts 80°
2026-05-05 18:37 39.51063 2.16067 16188 ft 401 kts 80°
2026-05-05 18:37 39.51648 2.19589 15936 ft 399 kts 80°
2026-05-05 18:38 39.52228 2.23093 15685 ft 397 kts 80°
2026-05-05 18:38 39.52803 2.26571 15438 ft 394 kts 80°
2026-05-05 18:38 39.53371 2.30002 15166 ft 382 kts 80°
2026-05-05 18:38 39.53916 2.33304 14908 ft 368 kts 80°
2026-05-05 18:39 39.54452 2.36490 14656 ft 356 kts 77°
2026-05-05 18:39 39.55286 2.39475 14399 ft 348 kts 68°
2026-05-05 18:39 39.56242 2.42324 14161 ft 342 kts 67°
2026-05-05 18:39 39.57212 2.45119 13926 ft 341 kts 67°
2026-05-05 18:40 39.58196 2.47932 13700 ft 344 kts 67°
2026-05-05 18:40 39.59189 2.50777 13461 ft 346 kts 67°
2026-05-05 18:40 39.60173 2.53602 13196 ft 343 kts 67°
2026-05-05 18:40 39.61152 2.56414 12994 ft 341 kts 66°
2026-05-05 18:41 39.62127 2.59224 12906 ft 340 kts 67°
2026-05-05 18:41 39.63084 2.61992 12643 ft 334 kts 66°
2026-05-05 18:41 39.64012 2.64693 12220 ft 330 kts 66°
2026-05-05 18:41 39.64939 2.67414 11702 ft 329 kts 66°
2026-05-05 18:42 39.65853 2.70124 11237 ft 326 kts 66°
2026-05-05 18:42 39.66748 2.72808 10822 ft 322 kts 66°
2026-05-05 18:42 39.67626 2.75471 10399 ft 318 kts 66°
2026-05-05 18:42 39.68485 2.78102 9962 ft 316 kts 66°
2026-05-05 18:43 39.69328 2.80714 9494 ft 313 kts 67°
2026-05-05 18:43 39.70162 2.83322 9071 ft 309 kts 67°
2026-05-05 18:43 39.70975 2.85879 8607 ft 306 kts 67°
2026-05-05 18:43 39.71779 2.88425 8142 ft 304 kts 67°
2026-05-05 18:44 39.72573 2.90956 7697 ft 301 kts 67°
2026-05-05 18:44 39.73352 2.93460 7268 ft 298 kts 67°
2026-05-05 18:44 39.74124 2.95951 6814 ft 296 kts 67°
2026-05-05 18:44 39.74629 2.97588 6538 ft 294 kts 67°
2026-05-05 18:45 39.75380 3.00041 6111 ft 291 kts 67°
2026-05-05 18:45 39.76088 3.02497 5652 ft 290 kts 73°
2026-05-05 18:45 39.76242 3.05088 5129 ft 290 kts 101°
2026-05-05 18:45 39.75401 3.07397 4763 ft 278 kts 137°
2026-05-05 18:46 39.73845 3.08597 4667 ft 250 kts 173°
2026-05-05 18:46 39.72255 3.08406 4539 ft 218 kts 212°
2026-05-05 18:46 39.71136 3.07227 4246 ft 203 kts 229°
2026-05-05 18:46 39.70165 3.05902 4017 ft 204 kts 232°
2026-05-05 18:47 39.69234 3.04471 3988 ft 209 kts 233°
2026-05-05 18:47 39.68339 3.03007 3987 ft 205 kts 237°
2026-05-05 18:47 39.67537 3.01508 3974 ft 201 kts 240°
2026-05-05 18:47 39.66788 2.99982 3988 ft 203 kts 240°
2026-05-05 18:48 39.66037 2.98411 3930 ft 205 kts 241°
2026-05-05 18:48 39.65288 2.96829 3670 ft 208 kts 241°
2026-05-05 18:48 39.64537 2.95240 3415 ft 204 kts 241°
2026-05-05 18:48 39.63801 2.93685 3150 ft 199 kts 241°
2026-05-05 18:49 39.63094 2.92190 2902 ft 190 kts 241°
2026-05-05 18:49 39.62416 2.90756 2646 ft 182 kts 240°
2026-05-05 18:49 39.61764 2.89371 2423 ft 179 kts 240°
2026-05-05 18:49 39.61100 2.88026 2176 ft 175 kts 239°
2026-05-05 18:50 39.60486 2.86693 1945 ft 168 kts 240°
2026-05-05 18:50 39.59911 2.85452 1760 ft 157 kts 240°
2026-05-05 18:50 39.59352 2.84264 1529 ft 150 kts 239°
2026-05-05 18:50 39.58814 2.83122 1337 ft 147 kts 238°
2026-05-05 18:51 39.58276 2.81984 1132 ft 151 kts 238°
2026-05-05 18:51 39.57737 2.80841 925 ft 148 kts 238°
2026-05-05 18:51 39.57212 2.79727 728 ft 141 kts 238°
2026-05-05 18:51 39.56712 2.78665 544 ft 136 kts 236°
2026-05-05 18:52 39.56223 2.77624 327 ft 137 kts 237°
2026-05-05 18:52 39.55739 2.76568 171 ft 136 kts 236°
2026-05-05 18:52 39.55248 2.75524 35 ft 130 kts 237°
2026-05-05 18:52 39.54837 2.74677 28 ft 83 kts 239°
2026-05-05 18:53 39.54632 2.74246 30 ft 36 kts 238°
2026-05-05 18:53 39.54551 2.73957 30 ft 31 kts 262°
2026-05-05 18:53 39.54549 2.73819 30 ft 0 kts 270°
2026-05-05 18:55 39.54550 2.73796 30 ft 7 kts 274°
2026-05-05 18:55 39.54572 2.73747 30 ft 7 kts 335°
2026-05-05 18:56 39.54614 2.73765 30 ft 7 kts 44°
2026-05-05 18:56 39.54640 2.73816 30 ft 7 kts 58°
2026-05-05 18:56 39.54665 2.73868 30 ft 7 kts 58°
2026-05-05 18:56 39.54691 2.73923 29 ft 7 kts 58°
2026-05-05 18:57 39.54720 2.73983 29 ft 8 kts 58°
2026-05-05 18:57 39.54750 2.74048 29 ft 9 kts 57°
2026-05-05 18:57 39.54787 2.74114 28 ft 9 kts 43°
2026-05-05 18:57 39.54845 2.74111 28 ft 9 kts 331°
2026-05-05 18:58 39.54900 2.74069 27 ft 9 kts 329°
2026-05-05 18:58 39.54954 2.74026 27 ft 9 kts 328°
2026-05-05 18:58 39.55013 2.73980 26 ft 10 kts 328°
2026-05-05 18:58 39.55076 2.73930 25 ft 11 kts 328°
2026-05-05 18:59 39.55146 2.73875 25 ft 12 kts 330°
2026-05-05 18:59 39.55169 2.73793 24 ft 10 kts 256°
2026-05-05 18:59 39.55177 2.73704 23 ft 10 kts 257°
2026-05-05 18:59 39.55145 2.73624 25 ft 10 kts 239°
2026-05-05 19:00 39.55109 2.73549 24 ft 10 kts 237°
2026-05-05 19:00 39.55074 2.73475 26 ft 9 kts 238°
2026-05-05 19:00 39.55050 2.73428 25 ft 0 kts 229°
2026-05-05 19:00 39.55042 2.73427 25 ft 2 kts 175°
2026-05-05 19:01 39.55024 2.73434 26 ft 3 kts 164°
2026-05-05 19:01 39.55007 2.73440 25 ft 3 kts 165°
2026-05-05 19:01 39.54990 2.73446 28 ft 2 kts 165°
2026-05-05 19:01 39.54988 2.73447 28 ft 0 kts 165°